Showing default

IRIDIUM 144, 43249

Orbit data source: Space-Track

IRIDIUM 144, 43249 is a payload satellite owned by Iridium (US) in LEO that was launched on Fri, 30 Mar 2018 UTC via an FALCON 9 launch vehicle from the Air Force Western Test Range (AFWTR). Payloads include a variety of satellites, spacecraft, and rockets equipped with specific instruments for various scientific and technological missions. These include communications satellites like Starlink; space stations such as the ISS; scientific satellites like the Hubble; Earth observation satellites from companies like Planet Labs, Umbra, and HawkEye 360; GPS; miniature CubeSats for education and research; and military/defense satellites.

Loading next visibility...
IRIDIUM 144 details
Identifier
43249, 2018-030A
Orbit
LEO
Last TLE update9 hours ago
Origin
Flag of USIridium (US)
ManufacturerOATK SSG Gilbert
MissionOperational Commercial Communications
Bus & MotorELITEBUS, Unknown motor
Mass860 kg wet, 700 kg dry
Launch date (UTC)
2018-03-30 (7 years ago)
Launch vehicle
FALCON 9
Launch site
Air Force Western Test Range (AFWTR)
Object type
Payload
Rocket body
Debris
Shape & HBRTrap Box + 2 Pan, 9.4 m
Radar Cross Section14.423 m², Large (>1 m²)

Expand to show TLE details & history

TLE from 9 hours ago
0 IRIDIUM 144
1 43249U 18030A   24361.17577844  .00000058  00000-0  13558-4 0  9992
2 43249  86.3989 155.3139 0001839  97.0227 263.1178 14.34217889353020
Epoch: 2024-12-26T04:13Z
Definitive object data (Epoch: 2024-12-26T04:13:07.257Z)
Latitude-0.00001°
Longitude-3.12528°
Altitude780.876 km
Speed7.463 km/s
True Right ascension10h 21m 15s
True Declination0° 00' 00"
Sunlit
Object was in full shadow at TLE epoch
Visualization TLE readout
Latitude84.31813°
Longitude137.73183°
Altitude790.089 km
Speed7.466 km/s
Apparent Right ascension23h 53m 49s
Apparent Declination30° 22' 10"
Sunlit
Object is in daylight
Visualization observer readout
Local Sidereal Time12:23:22
Azimuth6.756° NNE
Elevation-19.38°
Doppler factor1
Orbital elements
Apogee altitude775.947 km
Perigee altitude773.316 km
Semi-major axis7,152.768 km
Eccentricity0.0001839
Inclination86.3989°
RAAN155.3139°
Arg. of periapsis97.0227°
True anomaly263.09688°
Mean anomaly263.1178°
Eccentric anomaly263.10734°
Mean motion3.58783 °/min
BSTAR0.000013558
Orbital period100.34 mins
Loading maneuver chart data...
Loading historical data...
Loading historical data...
Loading historical data...
Loading historical data...
Loading historical data...
Loading historical data...
Loading historical data...

IRIDIUM 144 Visibility forecast

Observer location: undefined°, undefined

Span
Click to sort rows by Start time (UTC) header in descending order
Start Az.
Max El. time (UTC)
Max El. Az.
Max El.
End time (UTC)
End Az.
7 mins2024-12-26 21:32:46.109Z31.418° NE2024-12-26 21:36:46.109Z83.839° E19.037°2024-12-26 21:39:46.109Z121.406° SE
8 mins2024-12-26 23:13:46.109Z336.8° NNW2024-12-26 23:16:46.109Z288.926° WNW33.844°2024-12-26 23:21:46.109Z204.82° SW
7 mins2024-12-27 10:29:46.109Z144.742° SSE2024-12-27 10:32:46.109Z83.6° E34.071°2024-12-27 10:36:46.109Z20.051° NNE
5 mins2024-12-27 12:11:46.109Z255.669° W2024-12-27 12:13:46.109Z285.857° WNW19.426°2024-12-27 12:16:46.109Z325.325° NNW
|